Regional Weather Roundup
Issued by NWS

Home | Current Version | Previous Version | Text Only | Print | Product List | Glossary On
Versions: 1 2 3 4 5 6 7 8 9 10 11 12 13 14 15 16 17 18 19 20 21 22 23 24 25 26 27 28 29 30 31 32 33 34 35 36 37 38 39 40 41 42 43 44 45 46 47 48 49 50
000
ASUS43 KBIS 311210
RWRND

NORTH DAKOTA REGIONAL WEATHER ROUNDUP
NATIONAL WEATHER SERVICE BISMARCK ND
700 AM CDT MON AUG 31 2015

NOTE: "FAIR" INDICATES FEW OR NO CLOUDS BELOW 12,000 FEET WITH NO
SIGNIFICANT WEATHER AND/OR OBSTRUCTIONS TO VISIBILITY.


NDZ001>003-009>011-017-311300-
NORTHWEST NORTH DAKOTA

CITY           SKY/WX    TMP DP  RH WIND       PRES   REMARKS
WILLISTON        N/A    N/A N/A N/A MISG      29.81R
MINOT          LGT RAIN  64  59  83 NW15G21   29.76R
MINOT AFB      CLOUDY    64  64  99 NW21G32   29.74R
$$

NDZ018>021-031>035-040>046-311300-
SOUTHWEST NORTH DAKOTA

CITY           SKY/WX    TMP DP  RH WIND       PRES   REMARKS
BISMARCK       CLOUDY    69  57  65 NW8       29.72R
6HR MIN TEMP:  66; 6HR MAX TEMP:  72;

DICKINSON      MOCLDY    59  54  83 NW14      29.83R
GARRISON         N/A     64  60  87 W7        29.76R
6HR MIN TEMP:  62; 6HR MAX TEMP:  69; 6HR PCP:  0.03;

HETTINGER ARPT MOCLDY    60  55  83 NW15      29.84R
$$

NDZ004>008-012>016-024-026-027-054-311300-
NORTHEAST NORTH DAKOTA

CITY           SKY/WX    TMP DP  RH WIND       PRES   REMARKS
GRAND FORKS    MOCLDY    64  61  90 S12       29.65R
GRND FRKS AFB  PTCLDY    64  62  93 S9        29.65R
DEVILS LAKE    CLOUDY    64  57  77 NE8       29.65F
$$

NDZ022-023-025-028>030-036>039-047>053-311300-
SOUTHEAST NORTH DAKOTA

CITY           SKY/WX    TMP DP  RH WIND       PRES   REMARKS
FARGO          CLEAR     66  60  81 S13G24    29.67R
6HR MIN TEMP:  66; 6HR MAX TEMP:  71;

JAMESTOWN      MOCLDY    66  63  90 S7        29.68R
$$



USA.gov is the U.S. government's official web portal to all federal, state and local government web resources and services.